This is the latest recevied weather packets stored in our database for station/object WA6GRA. If no packets are shown the sender has not sent any weather packets the latest 10 day(s).
| Time | Temp. | Humidity | Pressure | Rain* | Wind** | Luminosity | Snow |
|---|---|---|---|---|---|---|---|
| 1777823513 | 15° C | 81% | 1011.9 hPa | 0 mm | - | 188 W/m² | - |
| 1777822908 | 14.44° C | 82% | 1011.8 hPa | 0 mm | - | 165 W/m² | - |
| 1777822309 | 14.44° C | 82% | 1011.7 hPa | 0 mm | - | 146 W/m² | - |
| 1777821704 | 13.89° C | 84% | 1011.8 hPa | 0 mm | - | 132 W/m² | - |
| 1777821103 | 13.89° C | 86% | 1011.8 hPa | 0 mm | - | 129 W/m² | - |
| 1777820502 | 13.33° C | 88% | 1011.6 hPa | 0 mm | - | 109 W/m² | - |
| 1777819903 | 13.33° C | 89% | 1011.4 hPa | 0 mm | - | 89 W/m² | - |
| 1777819298 | 13.33° C | 89% | 1011.1 hPa | 0 mm | - | 74 W/m² | - |
| 1777818697 | 12.78° C | 90% | 1011.3 hPa | 0 mm | - | 64 W/m² | - |
| 1777818096 | 12.78° C | 90% | 1011.1 hPa | 0 mm | - | 83 W/m² | - |
| 1777817496 | 12.78° C | 90% | 1010.8 hPa | 0 mm | - | 54 W/m² | - |
| 1777816895 | 12.78° C | 90% | 1010.8 hPa | 0 mm | - | 44 W/m² | - |
| 1777816294 | 13.33° C | 90% | 1010.4 hPa | 0 mm | - | 27 W/m² | - |
| 1777815689 | 13.33° C | 91% | 1010.2 hPa | 0 mm | - | 18 W/m² | - |
| 1777815089 | 13.33° C | 91% | 1010.2 hPa | 0 mm | - | 14 W/m² | - |
| 1777814488 | 13.33° C | 91% | 1009.9 hPa | 0 mm | - | 13 W/m² | - |
| 1777813888 | 12.78° C | 91% | 1009.6 hPa | 0 mm | - | 6 W/m² | - |
| 1777813283 | 13.33° C | 91% | 1009.5 hPa | 0 mm | - | 3 W/m² | - |
| 1777812678 | 13.33° C | 91% | 1009.4 hPa | 0 mm | - | 0 W/m² | - |
| 1777812073 | 13.33° C | 91% | 1009.4 hPa | 0 mm | - | 0 W/m² | - |
| 1777811473 | 13.33° C | 90% | 1009.2 hPa | 0 mm | - | 0 W/m² | - |
| 1777810873 | 13.33° C | 90% | 1009.1 hPa | 0 mm | - | 0 W/m² | - |
| 1777810272 | 13.33° C | 90% | 1009.2 hPa | 0 mm | - | 0 W/m² | - |
| 1777809672 | 13.89° C | 90% | 1009.2 hPa | 0 mm | - | 0 W/m² | - |
| 1777809066 | 13.89° C | 89% | 1009.1 hPa | 0 mm | - | 0 W/m² | - |
* Rain latest hour (hover to see other rain measurements)
** Current wind speed in m/s (hover to see current wind gust speed)